Location: *
(38.9555°S, 57.3572°E)
Time: 01:11:10
(UTC+00:00)

Cosmos 2219 - Pass Details

Date: 15 July 2020
Orbit: 835 x 858 km, 71.1° (Epoch: 06 August)

Event Time Altitude Azimuth Distance (km) Brightness Sun altitude
Rises 13:24:36 0° 1° (N) 3,394 6.7 -3.8°
Reaches altitude 10° 13:27:10 10° 8° (N) 2,471 5.9 -4.3°
Maximum altitude 13:32:24 39° 75° (ENE) 1,260 3.8 -5.2°
Drops below altitude 10° 13:37:43 10° 142° (SE) 2,514 5.1 -6.1°
Enters shadow 13:40:06 - 149° (SSE) 3,376 5.8 -6.6°
